#timestamp,LO_Frequency,Hit 
1505152815.1,286046994.4,N
1505152835.8,286046993.2,N
1505152855.7,286046990.5,N
1505152875.5,286046988.6,N
1505152895.3,286046991.4,N
1505152915.2,286046992.9,N
1505152935.9,286046994.6,N
1505152955.7,286046994.4,N
1505152975.6,286046994.1,N
1505152995.4,286046992.1,N
1505153015.2,286046990.5,N
1505153035.0,286046994.7,N
1505153035.9,286046994.7,N
1505153055.8,286046996.0,N
1505153075.6,286046994.7,N
1505153095.4,286046992.1,N
1505153115.3,286046994.5,N
1505153135.1,286046996.1,N
1505153155.8,286046996.7,N
1505153175.7,286047003.0,N
1505153195.5,286047005.2,N
1505153215.3,286047003.2,N
1505153235.2,286047007.6,N
1505153255.9,286047005.7,N
1505153275.7,286047004.7,N
1505153295.6,286047006.6,N
1505153315.4,286047010.3,N
1505153335.2,286047008.6,N
1505153355.0,286047010.4,N
1505153356.0,286047010.4,N
1505153375.8,286047012.4,N
1505153395.6,286047010.7,N
1505153415.4,286047009.8,N
1505153435.3,286047010.5,N
1505153455.1,286047011.4,N
1505153475.8,286047014.0,N
1505153495.7,286047014.0,N
1505153515.5,286047015.4,N
1505153535.3,286047018.2,N
1505153555.2,286047019.8,N
1505153575.9,286047016.4,N
1505153595.7,286047017.1,N
1505153615.6,286047018.1,N
1505153635.4,286047020.0,N
1505153655.2,286047018.8,N
1505153675.1,286047016.2,N
1505153676.0,286047016.2,N
1505153695.8,286047015.8,N
1505153715.6,286047019.8,P
1505153735.5,286047007.7,N
1505153755.3,286047007.9,N
1505153775.1,286047007.8,N
1505153795.9,286047006.4,N
1505153815.7,286047005.1,N
1505153835.5,286047005.8,N
1505153855.4,286047005.3,N
1505153875.2,286047005.7,N
1505153895.0,286047001.4,N
1505153895.9,286047001.4,N
1505153915.8,286046998.7,N
1505153935.6,286046997.5,N
1505153955.4,286046998.7,N
1505153975.2,286047000.1,N
1505153995.1,286047002.3,N
1505153996.0,286047002.3,N
1505154015.8,286047000.0,N
1505154035.6,286047002.4,N
1505154055.5,286047007.4,N
1505154075.3,286047005.3,N
1505154095.1,286047001.6,N
1505154115.9,286047001.4,N
1505154135.7,286047002.3,N
1505154155.5,286046998.6,N
1505154175.4,286046997.6,N
1505154195.2,286046994.9,N
1505154215.0,286046996.2,N
1505154215.9,286046996.2,N
1505154235.8,286046995.7,N
1505154255.6,286046996.3,N
1505154275.4,286046994.5,N
1505154295.3,286046995.2,N
1505154315.1,286046995.2,N
1505154316.0,286046995.2,N
1505154335.8,286046997.9,N
1505154355.7,286046992.1,N
1505154375.5,286046991.9,N
1505154395.3,286046994.8,N
1505154415.2,286046992.4,N
1505154435.9,286046991.3,N
1505154455.7,286046987.7,P
1505154475.6,286046988.8,N
1505154495.4,286046991.6,N
1505154515.2,286046991.4,N
1505154535.1,286046991.1,N
1505154536.0,286046991.1,N
1505154555.8,286046987.0,P
1505154575.6,286046997.0,N
1505154595.5,286046996.5,N
1505154615.3,286046998.6,N
1505154635.1,286047001.0,N
1505154655.9,286046999.4,N
1505154675.7,286046998.7,N
1505154695.5,286046999.1,N
1505154715.3,286046995.2,N
1505154735.2,286046995.1,N
1505154755.0,286046996.1,N
1505154755.9,286046996.1,N
1505154775.7,286046994.6,N
1505154795.6,286046992.6,N
1505154815.4,286046992.9,N
1505154835.2,286046991.5,N
1505154855.1,286046993.2,N
1505154856.0,286046993.2,N
1505154875.8,286046992.3,N
1505154895.6,286046990.1,N
1505154915.5,286046992.6,N
1505154935.3,286046990.6,N
1505154955.1,286046990.7,N
1505154975.9,286046993.2,N
1505154995.7,286046991.7,N
1505155015.5,286046997.1,N
1505155035.4,286047000.9,N
1505155055.2,286047005.1,N
1505155075.0,286047009.2,N
1505155075.9,286047009.2,N
1505155095.7,286047008.1,N
1505155115.6,286047010.7,N
1505155135.4,286047009.2,N
1505155155.2,286047007.9,N
1505155175.1,286047008.1,N
1505155176.0,286047008.1,N
1505155195.8,286047008.5,N
1505155215.6,286047007.8,N
1505155235.5,286047011.8,N
1505155255.3,286047011.6,N
1505155275.1,286047013.7,N
1505155295.9,286047009.9,N
1505155315.7,286047012.2,N
1505155335.5,286047011.2,N
1505155355.4,286047012.2,N
1505155375.2,286047011.1,N
1505155395.0,286047013.1,N
1505155395.9,286047013.1,N
1505155415.8,286047013.0,N
1505155435.6,286047015.4,N
1505155455.4,286047017.2,N
1505155475.3,286047017.9,N
1505155495.1,286047020.4,N
1505155496.0,286047020.4,P
1505155515.8,286047010.3,N
1505155535.7,286047009.0,N
1505155555.5,286047007.4,N
1505155575.3,286047006.1,N
1505155595.2,286047009.2,N
1505155615.9,286047008.3,N
1505155635.7,286047010.5,N
1505155655.6,286047011.8,P
1505155675.4,286047000.1,N
1505155695.2,286047002.8,N
1505155715.1,286047000.7,N
1505155716.0,286047000.7,N
1505155735.8,286047002.4,N
1505155755.6,286046998.4,N
1505155775.5,286046999.2,N
1505155795.3,286046996.7,N
1505155815.1,286047001.2,N
1505155835.8,286046998.6,N
1505155855.7,286047000.0,N
1505155875.5,286047002.7,N
1505155895.3,286047000.7,N
1505155915.2,286046999.3,N
1505155935.9,286047000.9,N
1505155955.7,286047000.9,N
1505155975.6,286046998.1,N
1505155995.4,286047000.9,N
1505156015.2,286046995.1,N
1505156035.1,286046995.9,N
1505156036.0,286046995.9,N
1505156055.8,286046997.2,N
1505156075.6,286046997.9,N
1505156095.5,286046997.5,N
1505156115.3,286046993.4,N
1505156135.1,286046992.7,N
1505156155.8,286046990.9,N
1505156175.7,286046990.7,N
1505156195.5,286046990.2,N
1505156215.4,286046986.9,P
1505156235.2,286046985.6,N
1505156255.0,286046984.4,N
1505156255.9,286046984.4,N
1505156275.8,286046986.0,N
1505156295.6,286046986.8,N
1505156315.4,286046985.8,P
1505156335.3,286046996.5,P
1505156355.1,286046995.5,N
1505156356.0,286046995.5,N
1505156375.8,286046994.9,N
1505156395.7,286046995.8,N
